STARLINK-5814, 55777

Orbit data source: Space-Track

STARLINK-5814, 55777 is a payload satellite owned by SpaceX/Seattle (US) in LEO that was launched on Fri, 03 Mar 2023 UTC via an FALCON 9 launch vehicle from the Air Force Western Test Range (AFWTR). Payload-class satellites include a variety of spacecraft equipped with specific instruments for various scientific and technological missions. These include communications satellites like Starlink; space stations such as the ISS; scientific satellites like the Hubble; Earth observation satellites from companies like Planet Labs, Umbra, and HawkEye 360; GPS; miniature CubeSats for education and research; and military/defense satellites.

Loading next visibility...
Identifier
55777, 2023-028AN
Orbit
LEO
Country
Flag of USUS
Related business
Manufacturer
SpaceX/Seattle
Mission
Operational Commercial Communications
Bus & Motor
STARLINK, Unknown motor
Mass
305 kg wet, ~290 kg dry
Launch date (UTC)
2023-03-03 (3 years ago)
Launch vehicle
FALCON 9
Launch site
Air Force Western Test Range (AFWTR)
Object type
Payload
Rocket body
Debris
Shape & HBR
Box + 1 Pan, 10.1 m
Radar Cross Section
11.087 m², Large (>1 m²)

Expand to show TLE details & history
Last TLE update: 2 days ago

TLE from 2 days ago
0 STARLINK-5814
1 55777U 23028AN  26171.08372599 -.00052177  00000-0 -44458-2 0  9997
2 55777  70.0011 326.1664 0003357 221.0842 139.0065 14.97908609181879
Epoch: 2026-06-20T02:00Z
TLE epoch observation values (Epoch: 2026-06-20T02:00:33.925Z)
Latitude
0.00002°
Longitude
27.72162°
Altitude
577.545 km
Speed
7.571 km/s
True Right ascension
21h 44m 39s
True Declination
0° 00' 00"
Sunlit
Object was in full shadow at epoch
Visualization orbit readout
Latitude
Unknown
Longitude
Unknown
Altitude
Unknown
Speed
Unknown
Apparent Right ascension
Unknown
Apparent Declination
Unknown
Sunlit
N/A
Visualization observer readout
Local Sidereal Time
21:33:46
Azimuth
Unknown
Elevation
Unknown
Doppler factor
Unknown
Orbital elements
Apogee altitude
573.641 km
Perigee altitude
568.975 km
Semi-major axis
6,949.445 km
Eccentricity
0.00034
Inclination
70.0011°
RAAN
326.1664°
Arg. of periapsis
221.0842°
True anomaly
139.03173°
Mean anomaly
139.0065°
Eccentric anomaly
139.01911°
Mean motion
3.74643 °/min
Orbital period
96.09 mins
BSTAR
-0.0044458
Loading maneuver chart data...
Computing Atmospheric mass density...
Loading historical data...
Loading historical data...
Loading historical data...
Loading historical data...
Loading historical data...
Loading historical data...
Loading historical data...

Documentation

Showing up to 5 results
|